Powrót do katalogu

NIMBUS 2 DEB

AktywnyLEO
NORAD 28977·DEBRIS·🇺🇸 United States

Wystrzelony May 15, 1966 z Vandenberg Space Force Base

Loading…

Następne Przeloty (najbliższe 24 godziny)

TLE

ŚwieżeSource: Space-Track

Epoka: Sep 13, 2026, 21:07 UTC

1 28977U 66040AN  26256.88012714  .00001194  00000-0  18317-2 0  9998
2 28977 100.4634 224.2783 0044766 203.7248 183.9590 13.53696356 24776

Śledź NIMBUS 2 DEB w czasie rzeczywistym z AllMySat

Download on the App Store